Location: Exeidioux
(45.6312°N, 1.6819°E)
Time: 20:45:03
(UTC+00:00)

Gbstr 26 Del rocket - Pass Details

Date: 03 March 2021
Orbit: 492 x 1264 km, 51.8° (Epoch: 13 April)

Event Time Altitude Azimuth Distance (km) Brightness Sun altitude
Rises 19:53:27 0° 288° (WNW) 2,886 8.0 -23.4°
Reaches altitude 10° 19:55:39 10° 295° (WNW) 2,074 6.8 -23.8°
Maximum altitude 20:00:14 44° 9° (N) 1,043 4.2 -24.5°
Enters shadow 20:01:10 40° 36° (NE) 1,134 4.2 -24.7°
